• In Österreich
  • Länderverzeichnis
  • Für 7 Tage
  • Wassertemperatur
  • Satellitenkarten
  • Wetterkarte
  • News
  • Widgets
  • user-avatar
    Anmelden

    Stündliche Wetter Rabat

    Heute, 24 Juni, Sonntag

    Zeit Temperatur Niederschläge Wind Luftdruck Luftfeuchtigkeit
    00:00 +23°C° 0 mm 2 m/S 759 mmHg 86%
    01:00 +23°C° 0 mm 2 m/S 759 mmHg 86%
    02:00 +23°C° 0 mm 2 m/S 758 mmHg 86%
    03:00 +23°C° 0 mm 2 m/S 758 mmHg 86%
    04:00 +23°C° 0 mm 2 m/S 758 mmHg 86%
    05:00 +23°C° 0 mm 2 m/S 758 mmHg 86%
    06:00 +21°C° 0 mm 2 m/S 758 mmHg 87%
    07:00 +23°C° 0 mm 2 m/S 759 mmHg 85%
    08:00 +23°C° 0 mm 2 m/S 759 mmHg 82%
    09:00 +24°C° 0 mm 2 m/S 759 mmHg 80%
    10:00 +24°C° 0 mm 3 m/S 759 mmHg 77%
    11:00 +25°C° 0 mm 3 m/S 759 mmHg 74%
    12:00 +26°C° 0 mm 3 m/S 759 mmHg 70%
    13:00 +26°C° 0 mm 4 m/S 759 mmHg 68%
    14:00 +27°C° 0 mm 4 m/S 758 mmHg 66%
    15:00 +28°C° 0 mm 4 m/S 758 mmHg 63%
    16:00 +27°C° 0 mm 4 m/S 758 mmHg 65%
    17:00 +26°C° 0 mm 4 m/S 759 mmHg 67%
    18:00 +26°C° 0 mm 5 m/S 759 mmHg 69%
    19:00 +25°C° 0 mm 4 m/S 759 mmHg 74%
    20:00 +24°C° 0 mm 3 m/S 760 mmHg 79%
    21:00 +22°C° 0 mm 3 m/S 760 mmHg 84%
    22:00 +21°C° 0 mm 2 m/S 760 mmHg 83%
    23:00 +21°C° 0 mm 2 m/S 760 mmHg 83%

    Morgen, 25 Juni, Montag

    Zeit Temperatur Niederschläge Wind Luftdruck Luftfeuchtigkeit
    00:00 +22°C° 0 mm 1 m/S 761 mmHg 83%
    01:00 +22°C° 0 mm 1 m/S 760 mmHg 83%
    02:00 +22°C° 0 mm 1 m/S 760 mmHg 83%
    03:00 +22°C° 0 mm 1 m/S 760 mmHg 83%
    04:00 +22°C° 0 mm 1 m/S 760 mmHg 83%
    05:00 +22°C° 0 mm 1 m/S 760 mmHg 83%
    06:00 +22°C° 0 mm 1 m/S 760 mmHg 82%
    07:00 +22°C° 0 mm 1 m/S 760 mmHg 80%
    08:00 +23°C° 0 mm 1 m/S 760 mmHg 77%
    09:00 +23°C° 0 mm 1 m/S 760 mmHg 75%
    10:00 +25°C° 0 mm 2 m/S 760 mmHg 69%
    11:00 +27°C° 0 mm 3 m/S 760 mmHg 63%
    12:00 +28°C° 0 mm 3 m/S 760 mmHg 57%
    13:00 +28°C° 0 mm 4 m/S 760 mmHg 56%
    14:00 +29°C° 0 mm 5 m/S 760 mmHg 55%
    15:00 +29°C° 0 mm 5 m/S 760 mmHg 54%
    16:00 +28°C° 0 mm 5 m/S 760 mmHg 58%
    17:00 +27°C° 0 mm 5 m/S 760 mmHg 61%
    18:00 +26°C° 0 mm 5 m/S 760 mmHg 65%
    19:00 +25°C° 0 mm 4 m/S 760 mmHg 70%
    20:00 +24°C° 0 mm 3 m/S 761 mmHg 75%
    21:00 +22°C° 0 mm 3 m/S 761 mmHg 80%
    22:00 +23°C° 0 mm 2 m/S 761 mmHg 82%
    23:00 +21°C° 0 mm 2 m/S 761 mmHg 84%

    übermorgen, 26 Juni, Dienstag

    Zeit Temperatur Niederschläge Wind Luftdruck Luftfeuchtigkeit
    00:00 +21°C° 0 mm 2 m/S 761 mmHg 86%
    01:00 +21°C° 0 mm 2 m/S 761 mmHg 87%
    02:00 +20°C° 0 mm 2 m/S 761 mmHg 88%
    03:00 +20°C° 0 mm 2 m/S 760 mmHg 90%
    04:00 +20°C° 0 mm 2 m/S 760 mmHg 90%
    05:00 +20°C° 0 mm 2 m/S 760 mmHg 90%
    06:00 +20°C° 0 mm 2 m/S 760 mmHg 91%
    07:00 +21°C° 0 mm 2 m/S 761 mmHg 82%
    08:00 +24°C° 0 mm 2 m/S 761 mmHg 74%
    09:00 +25°C° 0 mm 2 m/S 761 mmHg 66%
    10:00 +26°C° 0 mm 3 m/S 761 mmHg 60%
    11:00 +28°C° 0 mm 3 m/S 761 mmHg 55%
    12:00 +29°C° 0 mm 4 m/S 761 mmHg 49%
    13:00 +30°C° 0 mm 4 m/S 760 mmHg 48%
    14:00 +30°C° 0 mm 5 m/S 760 mmHg 48%
    15:00 +30°C° 0 mm 5 m/S 760 mmHg 47%
    16:00 +29°C° 0 mm 5 m/S 760 mmHg 51%
    17:00 +28°C° 0 mm 5 m/S 760 mmHg 55%
    18:00 +27°C° 0 mm 5 m/S 761 mmHg 58%
    19:00 +26°C° 0 mm 4 m/S 761 mmHg 64%
    20:00 +25°C° 0 mm 3 m/S 761 mmHg 70%
    21:00 +22°C° 0 mm 3 m/S 762 mmHg 76%
    22:00 +23°C° 0 mm 2 m/S 762 mmHg 78%
    23:00 +23°C° 0 mm 2 m/S 762 mmHg 80%

    27 Juni, Mittwoch

    Zeit Temperatur Niederschläge Wind Luftdruck Luftfeuchtigkeit
    00:00 +21°C° 0 mm 2 m/S 762 mmHg 82%
    01:00 +21°C° 0 mm 2 m/S 762 mmHg 84%
    02:00 +21°C° 0 mm 2 m/S 761 mmHg 85%
    03:00 +20°C° 0 mm 2 m/S 761 mmHg 87%
    04:00 +20°C° 0 mm 2 m/S 761 mmHg 87%
    05:00 +21°C° 0 mm 1 m/S 761 mmHg 88%
    06:00 +21°C° 0 mm 1 m/S 761 mmHg 89%
    07:00 +22°C° 0 mm 1 m/S 761 mmHg 79%
    08:00 +24°C° 0 mm 2 m/S 761 mmHg 69%
    09:00 +25°C° 0 mm 2 m/S 761 mmHg 59%
    10:00 +27°C° 0 mm 2 m/S 761 mmHg 54%
    11:00 +28°C° 0 mm 3 m/S 760 mmHg 48%
    12:00 +30°C° 0 mm 4 m/S 760 mmHg 43%
    13:00 +30°C° 0 mm 4 m/S 760 mmHg 43%
    14:00 +30°C° 0 mm 5 m/S 759 mmHg 44%
    15:00 +30°C° 0 mm 5 m/S 759 mmHg 44%
    16:00 +29°C° 0 mm 5 m/S 759 mmHg 48%
    17:00 +28°C° 0 mm 5 m/S 759 mmHg 52%
    18:00 +27°C° 0 mm 5 m/S 759 mmHg 56%
    19:00 +26°C° 0 mm 4 m/S 759 mmHg 62%
    20:00 +25°C° 0 mm 3 m/S 760 mmHg 69%
    21:00 +24°C° 0 mm 3 m/S 760 mmHg 76%
    22:00 +22°C° 0 mm 3 m/S 760 mmHg 78%
    23:00 +23°C° 0 mm 2 m/S 760 mmHg 81%

    28 Juni, Donnerstag

    Zeit Temperatur Niederschläge Wind Luftdruck Luftfeuchtigkeit
    00:00 +21°C° 0 mm 2 m/S 760 mmHg 84%
    01:00 +21°C° 0 mm 2 m/S 759 mmHg 85%
    02:00 +21°C° 0 mm 2 m/S 759 mmHg 86%
    03:00 +20°C° 0 mm 2 m/S 759 mmHg 88%
    04:00 +20°C° 0 mm 2 m/S 759 mmHg 88%
    05:00 +20°C° 0 mm 2 m/S 759 mmHg 89%
    06:00 +20°C° 0 mm 2 m/S 759 mmHg 89%
    07:00 +21°C° 0 mm 2 m/S 758 mmHg 80%
    08:00 +24°C° 0 mm 2 m/S 758 mmHg 72%
    09:00 +25°C° 0 mm 3 m/S 758 mmHg 63%
    10:00 +26°C° 0 mm 3 m/S 758 mmHg 58%
    11:00 +27°C° 0 mm 4 m/S 758 mmHg 53%
    12:00 +28°C° 0 mm 4 m/S 758 mmHg 49%
    13:00 +29°C° 0 mm 4 m/S 757 mmHg 48%
    14:00 +29°C° 0 mm 5 m/S 757 mmHg 48%
    15:00 +29°C° 0 mm 5 m/S 757 mmHg 47%
    16:00 +28°C° 0 mm 5 m/S 757 mmHg 50%
    17:00 +27°C° 0 mm 4 m/S 757 mmHg 53%
    18:00 +26°C° 0 mm 4 m/S 757 mmHg 57%
    19:00 +25°C° 0 mm 4 m/S 757 mmHg 62%
    20:00 +24°C° 0 mm 3 m/S 758 mmHg 68%
    21:00 +22°C° 0 mm 3 m/S 758 mmHg 74%
    22:00 +21°C° 0 mm 2 m/S 758 mmHg 77%
    23:00 +21°C° 0 mm 2 m/S 758 mmHg 79%

    29 Juni, Freitag

    Zeit Temperatur Niederschläge Wind Luftdruck Luftfeuchtigkeit
    00:00 +22°C° 0 mm 1 m/S 758 mmHg 82%
    01:00 +21°C° 0 mm 1 m/S 757 mmHg 84%
    02:00 +21°C° 0 mm 1 m/S 757 mmHg 85%
    03:00 +19°C° 0 mm 0 m/S 757 mmHg 87%
    04:00 +19°C° 0 mm 0 m/S 757 mmHg 87%
    05:00 +19°C° 0 mm 0 m/S 757 mmHg 88%
    06:00 +18°C° 0 mm 0 m/S 757 mmHg 89%
    07:00 +20°C° 0 mm 0 m/S 757 mmHg 79%
    08:00 +23°C° 0 mm 1 m/S 757 mmHg 70%
    09:00 +25°C° 0 mm 1 m/S 757 mmHg 61%
    10:00 +26°C° 0 mm 2 m/S 757 mmHg 55%
    11:00 +28°C° 0 mm 2 m/S 757 mmHg 49%
    12:00 +29°C° 0 mm 3 m/S 757 mmHg 43%
    13:00 +29°C° 0 mm 3 m/S 757 mmHg 44%
    14:00 +30°C° 0 mm 4 m/S 757 mmHg 44%
    15:00 +30°C° 0 mm 5 m/S 756 mmHg 44%
    16:00 +29°C° 0 mm 5 m/S 757 mmHg 48%
    17:00 +28°C° 0 mm 5 m/S 757 mmHg 52%
    18:00 +27°C° 0 mm 5 m/S 757 mmHg 56%
    19:00 +26°C° 0 mm 4 m/S 757 mmHg 61%
    20:00 +25°C° 0 mm 3 m/S 758 mmHg 66%
    21:00 +24°C° 0 mm 3 m/S 758 mmHg 71%
    22:00 +23°C° 0 mm 2 m/S 758 mmHg 73%
    23:00 +23°C° 0 mm 2 m/S 758 mmHg 75%
    Mehr zeigen